Zataženo
Polojasno
Polojasno
Polojasno
Polojasno
Polojasno
Převážně zataženo
Převážně zataženo
Polojasno
(°C)
15°
15°
16°
16°
17°
17°
17°
17°
18°
18°
19°
19°
19°
19°
20°
20°
20°
20°
(°C)
11°
12°
13°
14°
14°
15°
16°
16°
16°
SSV
SSV
SSV
SV
SV
SV
SV
SSV
SSV
(km/h)
20-30
20-33
20-33
20-33
20-33
19-34
19-34
19-33
18-30
(mm)
0
0
0
0
0
0
0
0
0
(%)
0
0
0
0
0
0
0
0
0

Sluneční výška

/ 42.1°
sun-icon
UV 3
03:31
20:07
Ubývající měsíc (208°)
21:20
05:36

METAR pro 55.61°S 49.28°V (UWKD)

Čas Podmínky Teplota/
Rosný bod
Vítr Viditelnost Počasí Oblaky Tlak Změna Nezpracované
VFR 16°C / 11°C 10º 10kt 9700m - Clouds and Visibility OK 1012 No Significant change UWKD 230530Z 01005MPS CAVOK 16/11 Q1012 R29/CLRD70 NOSIG RMK QFE748/0997
VFR 15°C / 10°C 20º 12kt 9700m - Overcast 4800ft 1012 No Significant change UWKD 230500Z 02006MPS 9999 OVC048 15/10 Q1012 R29/CLRD70 NOSIG RMK QFE748/0997
VFR 15°C / 11°C 360º 8kt 9700m - Overcast 4400ft 1012 No Significant change UWKD 230430Z 36004MPS 9999 OVC044 15/11 Q1012 R29/CLRD70 NOSIG RMK QFE748/0997
VFR 14°C / 10°C 20º 8kt 9700m - Overcast 4300ft 1012 No Significant change UWKD 230400Z 02004MPS 9999 OVC043 14/10 Q1012 R29/CLRD70 NOSIG RMK QFE748/0997
VFR 14°C / 11°C 10º 8kt 9700m - Overcast 4400ft 1012 No Significant change UWKD 230330Z 01004MPS 9999 OVC044 14/11 Q1012 R29/CLRD70 NOSIG RMK QFE748/0997
VFR 14°C / 11°C 20º 8kt 9700m - Overcast 3900ft 1012 No Significant change UWKD 230300Z 02004MPS 9999 OVC039 14/11 Q1012 R29/CLRD70 NOSIG RMK QFE748/0997
VFR 13°C / 10°C 20º 8kt 9700m - Overcast 3300ft 1012 No Significant change UWKD 230230Z 02004MPS 9999 OVC033 13/10 Q1012 R29/CLRD70 NOSIG RMK QFE748/0997
VFR 13°C / 11°C 20º 8kt 9700m - Overcast 4100ft 1012 No Significant change UWKD 230200Z 02004MPS 9999 OVC041 13/11 Q1012 R29/CLRD70 NOSIG RMK QFE748/0997
VFR 13°C / 10°C 20º 6kt 9700m - Overcast 3800ft 1012 No Significant change UWKD 230130Z 02003MPS 9999 OVC038 13/10 Q1012 R29/CLRD70 NOSIG RMK QFE748/0997
VFR 13°C / 10°C 20º 8kt 9700m - Overcast 4000ft 1012 No Significant change UWKD 230100Z 02004MPS 9999 OVC040 13/10 Q1012 R29/70D NOSIG RMK QFE748/0997
VFR 13°C / 10°C 20º 8kt 9700m - Broken Clouds 3900ft 1012 No Significant change UWKD 230030Z 02004MPS 9999 BKN039 13/10 Q1012 R29/70D NOSIG RMK QFE748/0997
VFR 13°C / 10°C 20º 8kt 9700m - Broken Clouds 3900ft 1012 No Significant change UWKD 230000Z 02004MPS 9999 BKN039 13/10 Q1012 R29/CLRD70 NOSIG RMK QFE748/0997
VFR 13°C / 10°C 20º 8kt 9700m - Broken Clouds 3700ft 1012 No Significant change UWKD 222330Z 02004MPS 9999 BKN037 13/10 Q1012 R29/CLRD70 NOSIG RMK QFE747/0997
VFR 13°C / 10°C 20º 8kt 9700m - Broken Clouds 3600ft 1012 No Significant change UWKD 222300Z 02004MPS 9999 BKN036 13/10 Q1012 R29/CLRD70 NOSIG RMK QFE748/0997
VFR 13°C / 10°C 20º 8kt 9700m - Broken Clouds 3600ft 1012 No Significant change UWKD 222230Z 02004MPS 9999 BKN036 13/10 Q1012 R29/CLRD70 NOSIG RMK QFE747/0997
VFR 13°C / 10°C 10º 8kt 9700m - Broken Clouds 3500ft 1012 No Significant change UWKD 222200Z 01004MPS 9999 BKN035 13/10 Q1012 R29/CLRD70 NOSIG RMK QFE747/0997
VFR 13°C / 10°C 20º 8kt 9700m - Broken Clouds 3300ft 1012 No Significant change UWKD 222130Z 02004MPS 9999 BKN033 13/10 Q1012 R29/CLRD70 NOSIG RMK QFE747/0997
VFR 14°C / 10°C 20º 8kt 9700m - Broken Clouds 3300ft 1012 No Significant change UWKD 222100Z 02004MPS 9999 BKN033 14/10 Q1012 R29/70D NOSIG RMK QFE747/0997
VFR 14°C / 11°C 20º 8kt 9700m - Broken Clouds 3300ft 1012 No Significant change UWKD 222030Z 02004MPS 9999 BKN033 14/11 Q1012 R29/70D NOSIG RMK QFE747/0997
VFR 14°C / 10°C 20º 8kt 9700m - Broken Clouds 3300ft 1012 No Significant change UWKD 222000Z 02004MPS 9999 BKN033 14/10 Q1012 R29/CLRD70 NOSIG RMK QFE747/0997
VFR 15°C / 11°C 30º 8kt 9700m - Overcast 3200ft 1012 No Significant change UWKD 221930Z 03004MPS 9999 OVC032 15/11 Q1012 R29/70D NOSIG RMK QFE747/0997
VFR 15°C / 11°C 30º 8kt 9700m - Overcast 3100ft 1011 No Significant change UWKD 221900Z 03004MPS 9999 OVC031 15/11 Q1011 R29/CLRD70 NOSIG RMK QFE747/0997
VFR 15°C / 11°C 20º 8kt 9700m - Overcast 3800ft 1011 No Significant change UWKD 221830Z 02004MPS 9999 OVC038 15/11 Q1011 R11/CLRD70 NOSIG RMK QFE748/0998
MVFR 15°C / 11°C 20º 8kt 9700m - Overcast 2700ft 1011 No Significant change UWKD 221800Z 02004MPS 9999 OVC027 15/11 Q1011 R11/70D NOSIG RMK QFE748/0998

VFR

16°C / 11°C

[Víc]
Vítr 10º 10kt
Viditelnost 9700m
Počasí -
Oblaky Clouds and Visibility OK
Tlak 1012
Změna No Significant change
Nezpracované UWKD 230530Z 01005MPS CAVOK 16/11 Q1012 R29/CLRD70 NOSIG RMK QFE748/0997

VFR

15°C / 10°C

[Víc]
Vítr 20º 12kt
Viditelnost 9700m
Počasí -
Oblaky Overcast 4800ft
Tlak 1012
Změna No Significant change
Nezpracované UWKD 230500Z 02006MPS 9999 OVC048 15/10 Q1012 R29/CLRD70 NOSIG RMK QFE748/0997

VFR

15°C / 11°C

[Víc]
Vítr 360º 8kt
Viditelnost 9700m
Počasí -
Oblaky Overcast 4400ft
Tlak 1012
Změna No Significant change
Nezpracované UWKD 230430Z 36004MPS 9999 OVC044 15/11 Q1012 R29/CLRD70 NOSIG RMK QFE748/0997

VFR

14°C / 10°C

[Víc]
Vítr 20º 8kt
Viditelnost 9700m
Počasí -
Oblaky Overcast 4300ft
Tlak 1012
Změna No Significant change
Nezpracované UWKD 230400Z 02004MPS 9999 OVC043 14/10 Q1012 R29/CLRD70 NOSIG RMK QFE748/0997

VFR

14°C / 11°C

[Víc]
Vítr 10º 8kt
Viditelnost 9700m
Počasí -
Oblaky Overcast 4400ft
Tlak 1012
Změna No Significant change
Nezpracované UWKD 230330Z 01004MPS 9999 OVC044 14/11 Q1012 R29/CLRD70 NOSIG RMK QFE748/0997

VFR

14°C / 11°C

[Víc]
Vítr 20º 8kt
Viditelnost 9700m
Počasí -
Oblaky Overcast 3900ft
Tlak 1012
Změna No Significant change
Nezpracované UWKD 230300Z 02004MPS 9999 OVC039 14/11 Q1012 R29/CLRD70 NOSIG RMK QFE748/0997

VFR

13°C / 10°C

[Víc]
Vítr 20º 8kt
Viditelnost 9700m
Počasí -
Oblaky Overcast 3300ft
Tlak 1012
Změna No Significant change
Nezpracované UWKD 230230Z 02004MPS 9999 OVC033 13/10 Q1012 R29/CLRD70 NOSIG RMK QFE748/0997

VFR

13°C / 11°C

[Víc]
Vítr 20º 8kt
Viditelnost 9700m
Počasí -
Oblaky Overcast 4100ft
Tlak 1012
Změna No Significant change
Nezpracované UWKD 230200Z 02004MPS 9999 OVC041 13/11 Q1012 R29/CLRD70 NOSIG RMK QFE748/0997

VFR

13°C / 10°C

[Víc]
Vítr 20º 6kt
Viditelnost 9700m
Počasí -
Oblaky Overcast 3800ft
Tlak 1012
Změna No Significant change
Nezpracované UWKD 230130Z 02003MPS 9999 OVC038 13/10 Q1012 R29/CLRD70 NOSIG RMK QFE748/0997

VFR

13°C / 10°C

[Víc]
Vítr 20º 8kt
Viditelnost 9700m
Počasí -
Oblaky Overcast 4000ft
Tlak 1012
Změna No Significant change
Nezpracované UWKD 230100Z 02004MPS 9999 OVC040 13/10 Q1012 R29/70D NOSIG RMK QFE748/0997

VFR

13°C / 10°C

[Víc]
Vítr 20º 8kt
Viditelnost 9700m
Počasí -
Oblaky Broken Clouds 3900ft
Tlak 1012
Změna No Significant change
Nezpracované UWKD 230030Z 02004MPS 9999 BKN039 13/10 Q1012 R29/70D NOSIG RMK QFE748/0997

VFR

13°C / 10°C

[Víc]
Vítr 20º 8kt
Viditelnost 9700m
Počasí -
Oblaky Broken Clouds 3900ft
Tlak 1012
Změna No Significant change
Nezpracované UWKD 230000Z 02004MPS 9999 BKN039 13/10 Q1012 R29/CLRD70 NOSIG RMK QFE748/0997

VFR

13°C / 10°C

[Víc]
Vítr 20º 8kt
Viditelnost 9700m
Počasí -
Oblaky Broken Clouds 3700ft
Tlak 1012
Změna No Significant change
Nezpracované UWKD 222330Z 02004MPS 9999 BKN037 13/10 Q1012 R29/CLRD70 NOSIG RMK QFE747/0997

VFR

13°C / 10°C

[Víc]
Vítr 20º 8kt
Viditelnost 9700m
Počasí -
Oblaky Broken Clouds 3600ft
Tlak 1012
Změna No Significant change
Nezpracované UWKD 222300Z 02004MPS 9999 BKN036 13/10 Q1012 R29/CLRD70 NOSIG RMK QFE748/0997

VFR

13°C / 10°C

[Víc]
Vítr 20º 8kt
Viditelnost 9700m
Počasí -
Oblaky Broken Clouds 3600ft
Tlak 1012
Změna No Significant change
Nezpracované UWKD 222230Z 02004MPS 9999 BKN036 13/10 Q1012 R29/CLRD70 NOSIG RMK QFE747/0997

VFR

13°C / 10°C

[Víc]
Vítr 10º 8kt
Viditelnost 9700m
Počasí -
Oblaky Broken Clouds 3500ft
Tlak 1012
Změna No Significant change
Nezpracované UWKD 222200Z 01004MPS 9999 BKN035 13/10 Q1012 R29/CLRD70 NOSIG RMK QFE747/0997

VFR

13°C / 10°C

[Víc]
Vítr 20º 8kt
Viditelnost 9700m
Počasí -
Oblaky Broken Clouds 3300ft
Tlak 1012
Změna No Significant change
Nezpracované UWKD 222130Z 02004MPS 9999 BKN033 13/10 Q1012 R29/CLRD70 NOSIG RMK QFE747/0997

VFR

14°C / 10°C

[Víc]
Vítr 20º 8kt
Viditelnost 9700m
Počasí -
Oblaky Broken Clouds 3300ft
Tlak 1012
Změna No Significant change
Nezpracované UWKD 222100Z 02004MPS 9999 BKN033 14/10 Q1012 R29/70D NOSIG RMK QFE747/0997

VFR

14°C / 11°C

[Víc]
Vítr 20º 8kt
Viditelnost 9700m
Počasí -
Oblaky Broken Clouds 3300ft
Tlak 1012
Změna No Significant change
Nezpracované UWKD 222030Z 02004MPS 9999 BKN033 14/11 Q1012 R29/70D NOSIG RMK QFE747/0997

VFR

14°C / 10°C

[Víc]
Vítr 20º 8kt
Viditelnost 9700m
Počasí -
Oblaky Broken Clouds 3300ft
Tlak 1012
Změna No Significant change
Nezpracované UWKD 222000Z 02004MPS 9999 BKN033 14/10 Q1012 R29/CLRD70 NOSIG RMK QFE747/0997

VFR

15°C / 11°C

[Víc]
Vítr 30º 8kt
Viditelnost 9700m
Počasí -
Oblaky Overcast 3200ft
Tlak 1012
Změna No Significant change
Nezpracované UWKD 221930Z 03004MPS 9999 OVC032 15/11 Q1012 R29/70D NOSIG RMK QFE747/0997

VFR

15°C / 11°C

[Víc]
Vítr 30º 8kt
Viditelnost 9700m
Počasí -
Oblaky Overcast 3100ft
Tlak 1011
Změna No Significant change
Nezpracované UWKD 221900Z 03004MPS 9999 OVC031 15/11 Q1011 R29/CLRD70 NOSIG RMK QFE747/0997

VFR

15°C / 11°C

[Víc]
Vítr 20º 8kt
Viditelnost 9700m
Počasí -
Oblaky Overcast 3800ft
Tlak 1011
Změna No Significant change
Nezpracované UWKD 221830Z 02004MPS 9999 OVC038 15/11 Q1011 R11/CLRD70 NOSIG RMK QFE748/0998

MVFR

15°C / 11°C

[Víc]
Vítr 20º 8kt
Viditelnost 9700m
Počasí -
Oblaky Overcast 2700ft
Tlak 1011
Změna No Significant change
Nezpracované UWKD 221800Z 02004MPS 9999 OVC027 15/11 Q1011 R11/70D NOSIG RMK QFE748/0998

TAF pro 55.61°S 49.28°V (UWKD)

From till


Maximum Temperature 21ºC on . Minimum Temperature 12ºC on .
From till Wind 20º 10kt. Visibility 9700m. Broken Clouds 2000ft.

Nezpracované: TAF UWKD 230453Z 2306/2406 02005MPS 9999 BKN020 TX21/2312Z TN12/2401Z

Radar a krátkodobá předpověď srážek pro 55.61°S 49.28°V

Mrholení
Slabé
Střední
Silné
Velmi silné
Kroupy

Značka lokality je umístněna na 55.61°S 49.28°V. Tato animace zobrazuje srážkový radar pro vybraný časový rozsah a také 2h předpověď. Oranžové křížky označují blesky. Údaje poskytl nowcast.de (k dispozici v USA, Evropě a Austrálii). Mrholení nebo slabé sněžení může být pro radar neviditelné. Intenzita srážek je barevně označena od tyrkysové po červenou.

Aktuální snímky ze satelitu a srážky pro 55.61°S 49.28°V

Značka polohy je umístěna na 55.61°S 49.28°V. [Víc]

Satelitní snímek v reálném čase kombinuje viditelné světlo během dne s infračerveným zářením během noci. V noci není obraz tmavý, protože infračervené záření dokáže detekovat teplotní rozdíly. Nízká oblačnost a mlha se bohužel těžko odlišují od pozemních teplot, a proto mohou být během noci téměř neviditelné. Satelitní snímky z Meteosatu pro Evropu jsou aktualizovány v reálném čase každých 5 minut. Snímky z GOES-16/GOES-17 (Severní a Jižní Amerika) a Himawari (Asie) jsou aktualizovány) každých 10 minut.

Srážky se odhadují z radarů a družic. Odhady srážek ze satelitů jsou v noci méně přesné než ve dne.

© 2024 meteoblue, NOAA Satellites GOES-16 and EUMETSAT. Údaje o blescích poskytuje nowcast.

Zpět nahoru
×
Dobrý den,
zdá se, že používáte blokovač reklam.

Reklama je nezbytná pro udržování našich bezplatných webových stránek s jedinečnými detaily a přesností.

Prosím, zapište www.meteoblue.com do svého blokovače reklam nebo zvažte nákup některého z našich produktů:

Máte již předplatné?
Pak se prosím přihlaste.